Regional Weather Roundup
Issued by NWS

Home | Current Version | Previous Version | Graphics & Text | Print | Product List | Glossary Off
Versions: 1 2 3 4 5 6 7 8 9 10 11 12 13 14 15 16 17 18 19 20 21 22 23 24 25 26 27 28 29 30 31 32 33 34 35 36 37 38 39 40 41 42 43 44 45 46 47 48 49 50

000
ASUS43 KLSX 220607
RWRMO

WEATHER SUMMARY FOR MISSOURI
NATIONAL WEATHER SERVICE SPRINGFIELD MO
100 AM CDT WED OCT 22 2014

NOTE: "FAIR" INDICATES FEW OR NO CLOUDS BELOW 12,000 FEET WITH NO
       SIGNIFICANT WEATHER AND/OR OBSTRUCTIONS TO VISIBILITY.
       CURRENT SKY AND/OR WEATHER CONDITIONS ARE NOT AVAILABLE FOR
       CHILLICOTHE AND FARMINGTON.

MOZ001>031-035>038-043-044-053-054-220700-
...NORTHERN AND WESTERN MISSOURI...

CITY           SKY/WX    TMP DP  RH WIND       PRES   REMARKS
KANSAS CTY INT CLEAR     56  45  66 SE15      30.12S
6HR MIN TEMP:  56; 6HR MAX TEMP:  65;

KANSAS C DTWN  CLEAR     59  45  59 E12       30.11F
6HR MIN TEMP:  56; 6HR MAX TEMP:  67;

LEE`S SUMMIT   CLEAR     56  44  64 SE9       30.13S
6HR MIN TEMP:  53; 6HR MAX TEMP:  67;

ST JOSEPH      MOCLDY    57  45  64 SE12      30.12S
6HR MIN TEMP:  49; 6HR MAX TEMP:  63;

CHILLICOTHE      N/A     51  43  74 VRB5      30.18S
6HR MIN TEMP:  51; 6HR MAX TEMP:  64;

KIRKSVILLE     CLEAR     46  41  82 E7        30.20S
6HR MIN TEMP:  46; 6HR MAX TEMP:  56;


$$
MOZ066>068-077>081-088>096-101>105-220700-
...SOUTHWEST MISSOURI...

CITY           SKY/WX    TMP DP  RH WIND       PRES   REMARKS
SPRINGFIELD    CLEAR     52  44  74 SE6       30.13S
6HR MIN TEMP:  50; 6HR MAX TEMP:  65;

JOPLIN         CLEAR     56  47  71 E7        30.10F
6HR MIN TEMP:  55; 6HR MAX TEMP:  66;


$$
MOZ032>034-039>042-045>050-055>058-069>072-220700-
...CENTRAL MISSOURI...

CITY           SKY/WX    TMP DP  RH WIND       PRES   REMARKS
COLUMBIA       CLEAR     48  41  76 E9        30.18S
6HR MIN TEMP:  48; 6HR MAX TEMP:  59;

JEFFERSON CITY CLEAR     50  42  74 E5        30.18S
6HR MIN TEMP:  49; 6HR MAX TEMP:  66;

ROLLA          CLEAR     49  42  77 E8        30.16S
6HR MIN TEMP:  49; 6HR MAX TEMP:  59;

SEDALIA        CLEAR     52  44  74 E6        30.17S
6HR MIN TEMP:  52; 6HR MAX TEMP:  66;

WHITEMAN AFB   CLEAR     50  44  80 SE6       30.14S
OSAGE BEACH    CLEAR     48  43  81 E3        30.16S

$$
MOZ051-052-059>065-220700-
...EAST CENTRAL MISSOURI...

CITY           SKY/WX    TMP DP  RH WIND       PRES   REMARKS
ST LOUIS INTL  CLEAR     50  40  68 E8        30.22R
6HR MIN TEMP:  50; 6HR MAX TEMP:  62;

SPIRIT OF STL  CLEAR     45  41  86 E3        30.20S
6HR MIN TEMP:  43; 6HR MAX TEMP:  54;

ST CHARLES     CLEAR     47  41  80 E8        30.22R
6HR MIN TEMP:  47; 6HR MAX TEMP:  57;


$$
MOZ072>076-082>087-097>100-106>115-220700-
...SOUTH CENTRAL AND SOUTHEAST MISSOURI...

CITY           SKY/WX    TMP DP  RH WIND       PRES   REMARKS
CAPE GIRARDEAU CLEAR     49  43  80 NE3       30.18R
6HR MIN TEMP:  46; 6HR MAX TEMP:  58;

FARMINGTON     CLEAR     45  43  93 CALM      30.20S
6HR MIN TEMP:  45; 6HR MAX TEMP:  59;

POPLAR BLUFF   CLEAR     51  43  74 NE6       30.15S
6HR MIN TEMP:  48; 6HR MAX TEMP:  63;

WEST PLAINS    CLEAR     50  43  77 E3        30.17S
6HR MIN TEMP:  50; 6HR MAX TEMP:  61;


$$



USA.gov is the U.S. government's official web portal to all federal, state and local government web resources and services.